Regional Weather Roundup
Issued by NWS Sterling, VA

Home | Current Version | Previous Version | Text Only | Print | Product List | Glossary Off
Versions: 1 2 3 4 5 6 7 8 9 10 11 12 13 14 15 16 17 18 19 20 21 22 23 24 25 26 27 28 29 30 31 32 33 34 35 36 37 38 39 40 41 42 43 44 45 46 47 48 49

000
ASUS41 KLWX 012110
RWRLWX

REGIONAL WEATHER ROUNDUP
NATIONAL WEATHER SERVICE BALTIMORE MD/WASHINGTON DC
500 PM EDT SAT AUG 01 2015

Note: "FAIR" indicates few or no clouds below 12,000 feet
with no significant weather and/or obstructions to visibility.
 TC=TEMPERATURE CELSIUS

 * =Non NWS site. Station does not report precipitation (e.g. rain,
    snow, etc.), thunder, or fog.

DCZ001-MDZ009-015-VAZ040>042-051-053>054-012200-
WASHINGTON METRO

CITY           SKY/WX    TMP DP  RH WIND       PRES   REMARKS
WASHINGTON NAT PTSUNNY   90  63  40 W10       29.84F HX  91
DULLES         PTSUNNY   87  60  40 NW8       29.85S
ANDREWS AFB    MOSUNNY   88  63  43 SW9       29.84F
FT BELVOIR     MOSUNNY   87  65  47 CALM      29.84F
COLLEGE PARK*  MOSUNNY   90  59  35 SW7       29.83F
LEESBURG*      SUNNY     90  63  40 W10G17    29.86F HX  90
MANASSAS*      SUNNY     88  63  42 CALM      29.85F
GAITHERSBURG*  MOSUNNY   84  59  42 W7        29.89S

$$

MDZ006>007-011-014-012200-
BALTIMORE METRO

CITY           SKY/WX    TMP DP  RH WIND       PRES   REMARKS
BWI AIRPORT    MOSUNNY   88  60  38 W12G18    29.83S
MD SCIENCE CTR   N/A     89  58  34 MISG      29.83S
MARTIN STATE   MOSUNNY   90  66  45 W6        29.84F HX  92
ANNAPOLIS      LGT RAIN  82  66  58 CALM      29.83F
FORT MEADE*    PTSUNNY   79  66  65 W3        29.86S

$$

MDZ012-015-019>023-012200-
MARYLAND EASTERN SHORE

CITY           SKY/WX    TMP DP  RH WIND       PRES   REMARKS
OCEAN CITY     MOSUNNY   91  55  29 SW13      29.83F
SALISBURY      SUNNY     88  61  40 W12       29.83F
BAY BRIDGE AP*   N/A     82  64  54 SW5       29.84S
EASTON*        MOSUNNY   86  64  48 NW6       29.87F

$$

MDZ017>025-012200-
SOUTHERN MARYLAND

CITY           SKY/WX    TMP DP  RH WIND       PRES   REMARKS
PATUXENT RIVER MOSUNNY   88  64  44 SW8       29.83F
ST INIGOES     SUNNY     88  64  44 SW9       29.83F
LEONARDTOWN*   NOT AVBL

$$

MDZ003>005-012200-
NORTH CENTRAL MARYLAND

CITY           SKY/WX    TMP DP  RH WIND       PRES   REMARKS
FREDERICK*     MOSUNNY   90  61  37 W9        29.87F
HAGERSTOWN APT PTSUNNY   88  47  24 W12       29.86F
WESTMINSTER*   SUNNY     86  55  35 SW10      29.87F

$$

MDZ501>502-012200-
WESTERN MARYLAND

CITY           SKY/WX    TMP DP  RH WIND       PRES   REMARKS
OAKLAND*       MOSUNNY   72  61  68 W8        30.02S
CUMBERLAND*    NOT AVBL

$$

VAZ025>031-012200-
SHENANDOAH VALLEY

CITY           SKY/WX    TMP DP  RH WIND       PRES   REMARKS
WINCHESTER*    MOSUNNY   90  54  29 W9        29.88S
FRONT ROYAL*   FAIR      86  55  35 W8        29.87F
LURAY*         FAIR      91  54  27 NW12      29.89S
NEW MARKET*    MOCLDY    85  58  39 CALM      29.87S
STAUNTON*      SUNNY     89  53  28 W10       29.93S
WAYNESBORO*    FAIR      83  58  42 W5        29.93R

$$

WVZ021-048>050-054>055-012200-
EASTERN WEST VIRGINIA PANHANDLE

CITY           SKY/WX    TMP DP  RH WIND       PRES   REMARKS
MARTINSBURG    SUNNY     87  50  27 W10       29.87F
PETERSBURG*    SUNNY    N/A N/A N/A W14       29.93S

$$

VAZ036>039-050-012200-
CENTRAL FOOTHILLS

CITY           SKY/WX    TMP DP  RH WIND       PRES   REMARKS
CHARLOTTESVILL SUNNY     88  62  41 CALM      29.87S
CULPEPER*      MOSUNNY   83  69  61 CALM      29.86S
ORANGE*        SUNNY     90  63  40 SW7       29.87F HX  90
GORDONSVILLE*  FAIR      88  63  42 W5        29.85S
WARRENTON*     FAIR      85  69  59 E5        29.85S

$$

VAZ055>057-012200-
NORTH AND CENTRAL PIEDMONT

CITY           SKY/WX    TMP DP  RH WIND       PRES   REMARKS
FREDERICKSBRG* SUNNY     91  64  40 SW7       29.83S HX  93
STAFFORD*      MOSUNNY   88  60  37 SW7       29.88S

$$

NCZ024-NYZ072-PAZ021-071-VAZ022-071-012200-
OTHER REGIONAL OBSERVATIONS

CITY           SKY/WX    TMP DP  RH WIND       PRES   REMARKS
NEW YORK CITY  MOSUNNY   84  57  39 VRB5      29.80R
PHILADELPHIA   MOSUNNY   89  55  31 W14       29.82F
PITTSBURGH     MOSUNNY   82  50  32 W13G20    29.91F
ROANOKE        MOSUNNY   88  52  29 NW13      29.94S
RICHMOND       MOSUNNY   92  63  38 S10       29.84F HX  93
RALEIGH        MOSUNNY   92  58  31 SW8       29.88F HX  91

$$

ANZ530>537-012200-
MARINE OBSERVATIONS

STATION/POSITION TIME  TEMP    WIND        PRES
                       AIR SEA DIR/SP/G
                 (UTC) (F)     (DEG/KT/KT) (MB)
THOMAS PT LIGHT  2000   83 81  170/  4     1011.0F
BALT KEY BRIDGE  2000   86     280/  6/  8 1010.1F
COVE POINT       2000   83      30/  7/  9 1011.2F
LEWISETTA        2000   88 85  250/  5/  8 1010.0F
SOLOMONS ISLAND  2000      83                N/A
PINEY POINT      2000          260/  4/  6   N/A

$$




USA.gov is the U.S. government's official web portal to all federal, state and local government web resources and services.